Location: Rometta
(44.2000°N, 10.0500°E)
Time: 22:28:55
(UTC+00:00)

YAOGAN 3 - Pass Details

Date: 20 January 2021
Orbit: 625 x 627 km, 98.0° (Epoch: 04 March)

Event Time Altitude Azimuth Distance (km) Brightness Sun altitude
Rises 17:14:34 0° 160° (SSE) 2,898 8.0 -10.9°
Reaches altitude 10° 17:16:44 10° 158° (SSE) 1,996 7.1 -11.3°
Maximum altitude 17:21:04 72° 74° (ENE) 662 4.5 -12.1°
Drops below altitude 10° 17:25:26 10° 351° (N) 2,013 7.1 -12.8°
Sets 17:27:38 0° 349° (N) 2,924 8.0 -13.2°
